Manchester, NH

12:40 AM EST on December 11, 2019 (GMT -0500)
Manchester

Weather History for KMHT - November, 2019

Change the Weather History Date:

Friday, November 22, 2019

  Actual Average Record
Temperature  
Mean Temperature 42 °F 39 °F  
Max Temperature 49 °F 47 °F 69 °F (1999)
Min Temperature 34 °F 32 °F 9 °F (2018)
Degree Days  
Heating Degree Days 24 26  
Month to date heating degree days 608 489  
Since 1 July heating degree days 1026 1076  
Cooling Degree Days 0 0  
Month to date cooling degree days 0 0  
Year to date cooling degree days 844 642  
Moisture  
Dew Point 33 °F    
Average Humidity 70    
Maximum Humidity 93    
Minimum Humidity 44    
Precipitation  
Precipitation 0.05 in 0.12 in 1.31 in (1952)
Month to date precipitation 0.35 3.09  
Year to date precipitation 26.71 40.32  
Snow  
Snow 0.00 in - - ()
Month to date snowfall T  
Since 1 July snowfall T  
Snow Depth 0.00 in    
Sea Level Pressure  
Sea Level Pressure 29.72 in    
Wind  
Wind Speed 7 mph ()    
Max Wind Speed 25 mph    
Max Gust Speed 35 mph    
Visibility 9.6 miles    
Events Rain    
T = Trace of Precipitation, MM = Missing Value Source: Averaged Metar Reports

Daily Weather History Graph

Daily Weather History Graph

Search for Another Location

Airport or City:

Astronomy

Nov. 22, 2019 Rise Set
Actual Time 6:46 AM EST 4:16 PM EST
Civil Twilight 6:15 AM EST 4:48 PM EST
Nautical Twilight 5:40 AM EST 5:22 PM EST
Astronomical Twilight 5:06 AM EST 5:56 PM EST
Moon 1:39 AM EST (11/22) 2:24 PM EST (11/22)
Length of Visible Light 10h 32m
Length of Day
9h 30m
Waning Crescent, 20% of the Moon is Illuminated
Nov 22
Waning Crescent
Nov 26
New
Dec 4
First Quarter
Dec 12
Full
Dec 18
Last Quarter

Hourly Weather History & Observations

Time (EST) Temp. Windchill Dew Point Humidity Pressure Visibility Wind Dir Wind Speed Gust Speed Precip Events Conditions
12:53 AM 36.0 °F 33.3 °F 32.0 °F 86% 29.96 in 10.0 mi Variable 3.5 mph - 0.02 in Rain Light Rain
1:53 AM 35.1 °F 31.0 °F 33.1 °F 92% 29.93 in 10.0 mi SSW 4.6 mph - 0.00 in   Mostly Cloudy
2:53 AM 36.0 °F - 34.0 °F 93% 29.90 in 10.0 mi Calm Calm - N/A   Mostly Cloudy
3:53 AM 37.0 °F 32.4 °F 34.0 °F 89% 29.85 in 10.0 mi South 5.8 mph - N/A   Overcast
4:53 AM 39.0 °F 33.4 °F 35.1 °F 86% 29.82 in 10.0 mi South 8.1 mph - 0.00 in   Overcast
5:53 AM 39.9 °F 35.1 °F 36.0 °F 86% 29.79 in 7.0 mi South 6.9 mph - N/A   Overcast
7:53 AM 44.1 °F 39.5 °F 37.9 °F 79% 29.75 in 10.0 mi SSE 8.1 mph - N/A   Overcast
8:53 AM 45.0 °F 40.1 °F 37.9 °F 76% 29.72 in 10.0 mi South 9.2 mph - N/A   Overcast
9:53 AM 46.9 °F - 39.0 °F 74% 29.68 in 10.0 mi South 6.9 mph - N/A   Overcast
10:53 AM 48.0 °F - 39.0 °F 71% 29.66 in 10.0 mi SSW 6.9 mph - N/A   Overcast
11:53 AM 48.9 °F - 39.0 °F 69% 29.61 in 10.0 mi SSW 5.8 mph - N/A   Overcast
12:46 PM 48.0 °F - 39.9 °F 74% 29.55 in 8.0 mi WSW 4.6 mph - 0.00 in Rain Light Rain
12:53 PM 48.0 °F - 39.9 °F 74% 29.60 in 5.0 mi WSW 4.6 mph - 0.01 in Rain Light Rain
1:09 PM 48.0 °F - 42.1 °F 80% 29.56 in 10.0 mi WSW 5.8 mph - 0.01 in Rain Light Rain
1:53 PM 46.9 °F - 41.0 °F 80% 29.62 in 10.0 mi West 9.2 mph - 0.01 in Rain Light Rain
2:53 PM 46.0 °F 40.6 °F 37.0 °F 71% 29.59 in 10.0 mi WSW 11.5 mph 23.0 mph 0.01 in   Overcast
3:53 PM 45.0 °F 39.7 °F 33.1 °F 63% 29.60 in 10.0 mi West 10.4 mph 17.3 mph N/A   Mostly Cloudy
4:53 PM 43.0 °F 36.8 °F 30.0 °F 60% 29.61 in 10.0 mi West 11.5 mph 19.6 mph N/A   Mostly Cloudy
5:53 PM 43.0 °F 37.2 °F 28.9 °F 58% 29.64 in 10.0 mi West 10.4 mph 20.7 mph N/A   Mostly Cloudy
6:53 PM 43.0 °F 34.0 °F 26.1 °F 51% 29.67 in 10.0 mi WNW 21.9 mph 29.9 mph N/A   Mostly Cloudy
7:53 PM 41.0 °F 32.5 °F 23.0 °F 49% 29.72 in 10.0 mi WNW 17.3 mph 25.3 mph N/A   Mostly Cloudy
8:53 PM 39.9 °F 32.1 °F 21.0 °F 47% 29.76 in 10.0 mi NW 13.8 mph 21.9 mph N/A   Mostly Cloudy
9:53 PM 37.9 °F 29.6 °F 21.0 °F 51% 29.78 in 10.0 mi WNW 13.8 mph 26.5 mph N/A   Mostly Cloudy
10:53 PM 36.0 °F 28.0 °F 19.0 °F 50% 29.82 in 10.0 mi NW 11.5 mph 20.7 mph N/A   Partly Cloudy
11:53 PM 35.1 °F 28.6 °F 15.1 °F 44% 29.84 in 10.0 mi WNW 8.1 mph - N/A   Clear